Regional Weather Roundup
Issued by NWS

Home | Current Version | Previous Version | Text Only | Print | Product List | Glossary Off
Versions: 1 2 3 4 5 6 7 8 9 10 11 12 13 14 15 16 17 18 19 20 21 22 23 24 25 26 27 28

000
ASUS45 KSLC 171710
RWRUT

UTAH REGIONAL WEATHER ROUNDUP
NATIONAL WEATHER SERVICE SALT LAKE CITY UT
1000 AM MST WED JAN 17 2018

UTZ001>011-023>025-171800-

NORTHERN UTAH

CITY           SKY/WX    TMP DP  RH WIND       PRES   REMARKS
BRIGHAM CITY   MOSUNNY   36  29  77 CALM      30.44R
DUGWAY         MOSUNNY   32  26  78 VRB1      30.44R
HILL AFB       SUNNY     36  23  60 E7        30.41R WCI  30
LOGAN          SUNNY     39  28  64 NW3       30.43R
OGDEN          SUNNY     38  24  57 S5        30.42R WCI  34
SALT LAKE CITY PTSUNNY   38  27  64 S5        30.43R WCI  34
TOOELE VALLEY  MOSUNNY   36  30  80 S6        30.43R WCI  31
WENDOVER       MOSUNNY   33  26  75 CALM      30.44R
HEBER CITY       N/A     30  23  74 CALM      30.42S
WEST JORDAN    SUNNY     37  29  71 S3        30.43R

$$

UTZ011>015-024>027-171800-

CENTRAL/NORTHEAST UTAH

CITY           SKY/WX    TMP DP  RH WIND       PRES   REMARKS
PROVO AIRPORT  MOSUNNY   37  34  89 CALM      30.45R
MOAB/CANYONLAN SUNNY     35  18  49 SE5       30.43R WCI  31
DELTA          MOSUNNY   32  30  93 CALM      30.43R
PRICE          SUNNY     33  21  61 CALM      30.40R
ROOSEVELT      SUNNY     28  12  50 CALM      30.49R
VERNAL         SUNNY     27  13  55 E5        30.46R WCI  22

$$

UTZ013>016-019>022-027-171800-

SOUTHERN UTAH

CITY           SKY/WX    TMP DP  RH WIND       PRES   REMARKS
BRYCE CANYON   SUNNY     37  27  67 CALM      30.41R
CEDAR CITY     MOSUNNY   36  29  75 CALM      30.39R
MILFORD        SUNNY     32  28  85 SE3       30.42R
ST GEORGE      SUNNY     42  32  67 S3        30.38R
HANKSVILLE     MOSUNNY   32  12  43 CALM      30.47R
BLANDING         N/A     34  22  61 CALM      30.47R

$$

REGIONAL REPORTS     COLORADO/ARIZONA

CITY           SKY/WX    TMP DP  RH WIND       PRES   REMARKS
CRAIG, CO      SUNNY     16   5  62 CALM      30.44S
GRAND JUNCTION SUNNY     32  13  45 SE10      30.46R WCI  24
RIFLE, CO      SUNNY     23  12  62 CALM      30.48R
MONTROSE, CO   SUNNY     27  13  55 CALM      30.47S
CORTEZ, CO     PTSUNNY   31  18  58 CALM      30.39R
COLORADO CITY    N/A     41  28  60 CALM      30.41R
PAGE, AZ         N/A    N/A N/A N/A MISG      30.41R
GRAND CANYON   SUNNY     44  19  36 NE5       30.38R
KINGMAN, AZ    SUNNY     52  32  46 NE5       30.31R
FLAGSTAFF, AZ  SUNNY     39  22  50 NE3       30.37R

$$

REGIONAL REPORTS    NEVADA/IDAHO/WYOMING

CITY           SKY/WX    TMP DP  RH WIND       PRES   REMARKS
LAS VEGAS, NV  PTSUNNY   54  37  52 CALM      30.32R
ELY, NY        MOSUNNY   32  26  78 S6        30.41R WCI  26
ELKO, NV       MOSUNNY   29  27  92 E3        30.38F
POCATELLO, ID  PTSUNNY   30  27  88 NW3       30.44R
BURLEY, ID     SUNNY     34  29  82 N8        30.40S WCI  27
FORT BRIDGER,    N/A     36  24  62 W12       30.43R WCI  28
EVANSTON, WY   CLOUDY    27  20  75 CALM      30.40R
ROCK SPRINGS,  SUNNY     29  16  58 W8        30.39R WCI  21

$$




USA.gov is the U.S. government's official web portal to all federal, state and local government web resources and services.